QPF
0.03 0.03 0.04 0.04 0.04 0.05 0.06 0.06 0.08 0.08 0.08 0.08 0.10 0.12 0.10 0.08 0.07 0.04 0.04 0.04 0.04 0.04 0.04 0.05 0.06 0.05 0.05 0.06 0.06 0.06 0.06 0.06 0.06 0.06 0.07 0.05 0.07 0.08 0.13 0.15 0.14 0.10 0.09
0.03 0.03 0.04 0.04 0.06 0.07 0.07 0.07 0.08 0.07 0.05 0.06 0.06 0.06 0.06 0.08 0.08 0.07 0.06 0.05 0.05 0.05 0.04 0.05 0.05 0.04 0.04 0.05 0.06 0.05 0.05 0.06 0.08 0.09 0.09 0.06 0.08 0.11 0.13 0.11 0.09 0.08 0.07
0.05 0.05 0.04 0.07 0.06 0.07 0.08 0.08 0.06 0.06 0.07 0.07 0.06 0.05 0.05 0.06 0.05 0.04 0.06 0.06 0.05 0.05 0.04 0.03 0.03 0.03 0.03 0.03 0.04 0.04 0.03 0.04 0.06 0.09 0.11 0.08 0.07 0.11 0.12 0.08 0.06 0.05 0.05
0.04 0.05 0.07 0.09 0.08 0.07 0.06 0.05 0.05 0.05 0.06 0.06 0.05 0.04 0.03 0.03 0.04 0.04 0.04 0.05 0.05 0.05 0.04 0.03 0.03 0.02 0.02 0.02 0.03 0.03 0.03 0.02 0.03 0.05 0.04 0.04 0.05 0.07 0.09 0.07 0.05 0.04 0.04
0.03 0.03 0.04 0.05 0.06 0.05 0.04 0.04 0.05 0.05 0.05 0.05 0.03 0.03 0.03 0.02 0.03 0.04 0.04 0.05 0.06 0.06 0.06 0.04 0.03 0.03 0.02 0.01 0.02 0.02 0.02 0.02 0.03 0.03 0.03 0.05 0.06 0.06 0.05 0.04 0.04 0.04 0.03
0.01 0.02 0.04 0.06 0.06 0.05 0.04 0.03 0.03 0.04 0.05 0.05 0.04 0.04 0.03 0.02 0.02 0.03 0.03 0.03 0.04 0.04 0.04 0.03 0.02 0.02 0.01 0.02 0.02 0.02 0.02 0.03 0.03 0.02 0.03 0.04 0.05 0.04 0.03 0.03 0.04 0.05 0.05
0.01 0.01 0.03 0.04 0.04 0.04 0.04 0.03 0.04 0.05 0.06 0.04 0.04 0.05 0.04 0.03 0.03 0.03 0.03 0.02 0.02 0.02 0.02 0.01 0.01 0.02 0.03 0.03 0.02 0.02 0.02 0.03 0.02 0.02 0.02 0.02 0.03 0.03 0.03 0.03 0.02 0.03 0.04
0.01 0.01 0.03 0.04 0.02 0.02 0.02 0.01 0.03 0.05 0.07 0.05 0.04 0.04 0.04 0.03 0.03 0.03 0.03 0.04 0.03 0.02 0.02 0.02 0.02 0.02 0.03 0.03 0.03 0.02 0.03 0.02 0.02 0.01 0.01 0.01 0.02 0.03 0.02 0.03 0.02 0.03 0.03
0.02 0.02 0.02 0.02 0.01 0.01 0.01 0.01 0.01 0.03 0.04 0.03 0.03 0.03 0.03 0.02 0.02 0.02 0.02 0.03 0.04 0.04 0.02 0.02 0.02 0.04 0.04 0.03 0.03 0.02 0.02 0.01 0.01 0.01 0.02 0.02 0.02 0.02 0.02 0.02 0.02 0.02 0.02
0.03 0.03 0.02 0.02 0.01 0.01 0.00 0.00 0.01 0.01 0.02 0.03 0.03 0.03 0.02 0.02 0.02 0.03 0.03 0.03 0.03 0.03 0.02 0.03 0.04 0.05 0.04 0.03 0.02 0.02 0.02 0.02 0.01 0.02 0.02 0.02 0.02 0.02 0.01 0.02 0.03 0.02 0.02
0.02 0.03 0.02 0.02 0.02 0.01 0.01 0.01 0.01 0.02 0.02 0.02 0.03 0.05 0.04 0.03 0.03 0.03 0.03 0.04 0.05 0.05 0.04 0.04 0.05 0.04 0.03 0.03 0.03 0.02 0.02 0.02 0.01 0.01 0.02 0.02 0.02 0.02 0.01 0.01 0.02 0.02 0.02
0.02 0.03 0.03 0.02 0.02 0.02 0.02 0.02 0.02 0.02 0.01 0.02 0.02 0.04 0.05 0.04 0.04 0.04 0.04 0.05 0.06 0.07 0.08 0.08 0.05 0.03 0.02 0.02 0.03 0.03 0.03 0.03 0.03 0.03 0.03 0.02 0.02 0.02 0.02 0.01 0.01 0.01 0.01
0.02 0.03 0.03 0.02 0.02 0.02 0.02 0.03 0.03 0.03 0.02 0.02 0.02 0.03 0.03 0.04 0.05 0.06 0.07 0.08 0.07 0.07 0.07 0.06 0.05 0.04 0.03 0.03 0.03 0.04 0.05 0.06 0.06 0.04 0.03 0.02 0.01 0.01 0.02 0.02 0.01 0.01 0.01
0.01 0.02 0.02 0.02 0.02 0.02 0.02 0.03 0.03 0.03 0.02 0.02 0.02 0.02 0.03 0.05 0.07 0.08 0.09 0.09 0.08 0.08 0.07 0.07 0.06 0.05 0.04 0.04 0.04 0.05 0.08 0.08 0.06 0.04 0.02 0.02 0.01 0.01 0.01 0.02 0.02 0.02 0.02
0.01 0.01 0.01 0.01 0.01 0.01 0.02 0.02 0.02 0.02 0.02 0.02 0.02 0.02 0.03 0.05 0.06 0.08 0.10 0.10 0.09 0.08 0.08 0.08 0.07 0.06 0.04 0.04 0.04 0.05 0.05 0.05 0.04 0.03 0.03 0.02 0.02 0.01 0.01 0.01 0.02 0.02 0.01
0.02 0.01 0.01 0.01 0.01 0.01 0.01 0.01 0.02 0.02 0.03 0.03 0.03 0.03 0.03 0.03 0.03 0.03 0.05 0.08 0.09 0.09 0.08 0.08 0.07 0.06 0.05 0.04 0.04 0.05 0.05 0.04 0.03 0.03 0.04 0.04 0.04 0.03 0.02 0.01 0.01 0.02 0.02
0.02 0.01 0.01 0.01 0.01 0.01 0.02 0.03 0.04 0.04 0.04 0.04 0.03 0.03 0.04 0.04 0.03 0.03 0.03 0.03 0.03 0.04 0.04 0.05 0.06 0.05 0.05 0.05 0.05 0.05 0.06 0.05 0.05 0.05 0.05 0.04 0.03 0.02 0.02 0.02 0.02 0.02 0.02
0.02 0.01 0.01 0.01 0.02 0.03 0.03 0.03 0.03 0.04 0.05 0.05 0.05 0.04 0.03 0.04 0.05 0.04 0.04 0.03 0.02 0.03 0.03 0.04 0.05 0.06 0.05 0.05 0.05 0.06 0.06 0.05 0.05 0.03 0.02 0.02 0.02 0.02 0.02 0.03 0.03 0.02 0.02
0.02 0.02 0.01 0.01 0.02 0.03 0.04 0.04 0.04 0.05 0.05 0.06 0.05 0.05 0.04 0.04 0.04 0.05 0.05 0.03 0.03 0.03 0.03 0.03 0.04 0.05 0.06 0.08 0.07 0.06 0.06 0.04 0.03 0.02 0.02 0.02 0.01 0.02 0.02 0.03 0.03 0.02 0.02
0.03 0.02 0.02 0.01 0.02 0.04 0.04 0.05 0.05 0.04 0.04 0.04 0.04 0.05 0.05 0.04 0.04 0.04 0.04 0.04 0.04 0.04 0.03 0.03 0.03 0.04 0.05 0.06 0.07 0.06 0.05 0.03 0.03 0.02 0.02 0.03 0.02 0.02 0.03 0.03 0.03 0.03 0.03
0.03 0.03 0.02 0.03 0.03 0.04 0.04 0.05 0.05 0.04 0.03 0.04 0.05 0.05 0.05 0.05 0.04 0.05 0.05 0.06 0.05 0.04 0.04 0.03 0.03 0.03 0.03 0.03 0.04 0.04 0.04 0.04 0.03 0.02 0.02 0.02 0.03 0.05 0.07 0.07 0.06 0.07 0.07
0.03 0.03 0.03 0.03 0.03 0.04 0.05 0.05 0.05 0.05 0.06 0.06 0.05 0.05 0.05 0.06 0.06 0.06 0.05 0.04 0.04 0.03 0.03 0.02 0.02 0.02 0.01 0.01 0.02 0.02 0.02 0.03 0.03 0.02 0.02 0.03 0.03 0.04 0.05 0.06 0.08 0.10 0.11
0.03 0.03 0.03 0.04 0.03 0.03 0.05 0.06 0.06 0.06 0.05 0.07 0.06 0.07 0.06 0.06 0.05 0.05 0.04 0.03 0.03 0.02 0.02 0.02 0.02 0.01 0.01 0.01 0.01 0.01 0.01 0.01 0.02 0.02 0.02 0.02 0.03 0.04 0.04 0.05 0.05 0.06 0.07
0.02 0.03 0.02 0.04 0.03 0.02 0.03 0.04 0.06 0.07 0.07 0.06 0.06 0.06 0.08 0.07 0.05 0.05 0.04 0.03 0.02 0.02 0.02 0.02 0.02 0.01 0.01 0.01 0.01 0.01 0.01 0.01 0.01 0.01 0.01 0.01 0.02 0.02 0.03 0.03 0.04 0.04 0.05
0.02 0.02 0.02 0.02 0.04 0.03 0.03 0.03 0.04 0.06 0.07 0.07 0.07 0.07 0.07 0.06 0.04 0.03 0.03 0.02 0.02 0.02 0.02 0.02 0.02 0.02 0.02 0.02 0.02 0.02 0.01 0.01 0.01 0.01 0.01 0.00 0.01 0.01 0.01 0.02 0.02 0.03 0.03
0.02 0.02 0.03 0.02 0.03 0.03 0.02 0.02 0.03 0.04 0.05 0.06 0.07 0.08 0.09 0.07 0.05 0.04 0.03 0.03 0.03 0.04 0.03 0.03 0.02 0.02 0.03 0.04 0.03 0.03 0.02 0.02 0.01 0.01 0.01 0.01 0.01 0.01 0.01 0.01 0.01 0.02 0.02
MSLP
1008.28 1007.56 1006.80 1006.04 1005.34 1004.74 1004.28 1004.00 1003.91 1004.00 1004.22 1004.55 1004.94 1005.33 1005.71 1006.06 1006.38 1006.68 1007.00 1007.34 1007.72 1008.15 1008.62 1009.11 1009.61 1010.09 1010.54 1010.97 1011.37 1011.75 1012.14 1012.53 1012.92 1013.33 1013.72 1014.10 1014.44 1014.73 1014.97 1015.18 1015.35 1015.51 1015.67
1008.77 1008.11 1007.37 1006.61 1005.87 1005.19 1004.64 1004.25 1004.05 1004.02 1004.15 1004.39 1004.69 1005.02 1005.33 1005.61 1005.88 1006.14 1006.43 1006.77 1007.16 1007.61 1008.11 1008.64 1009.17 1009.67 1010.13 1010.56 1010.96 1011.35 1011.74 1012.17 1012.62 1013.10 1013.58 1014.05 1014.48 1014.84 1015.14 1015.36 1015.52 1015.64 1015.74
1009.02 1008.46 1007.82 1007.12 1006.39 1005.69 1005.07 1004.59 1004.28 1004.14 1004.16 1004.28 1004.48 1004.70 1004.93 1005.14 1005.35 1005.58 1005.84 1006.17 1006.58 1007.05 1007.58 1008.13 1008.68 1009.19 1009.66 1010.08 1010.47 1010.86 1011.27 1011.72 1012.22 1012.77 1013.34 1013.90 1014.41 1014.84 1015.17 1015.41 1015.56 1015.65 1015.70
1009.06 1008.66 1008.15 1007.55 1006.88 1006.20 1005.55 1005.00 1004.60 1004.34 1004.22 1004.22 1004.29 1004.40 1004.53 1004.66 1004.82 1005.00 1005.25 1005.58 1006.00 1006.50 1007.06 1007.63 1008.19 1008.71 1009.18 1009.59 1009.97 1010.35 1010.77 1011.25 1011.79 1012.39 1013.03 1013.66 1014.23 1014.72 1015.09 1015.34 1015.48 1015.54 1015.55
1008.98 1008.75 1008.40 1007.93 1007.35 1006.71 1006.06 1005.46 1004.96 1004.58 1004.32 1004.18 1004.11 1004.10 1004.13 1004.18 1004.28 1004.43 1004.67 1005.00 1005.44 1005.96 1006.55 1007.15 1007.72 1008.25 1008.71 1009.12 1009.49 1009.87 1010.29 1010.78 1011.35 1011.99 1012.67 1013.34 1013.97 1014.49 1014.89 1015.15 1015.28 1015.32 1015.30
1008.87 1008.80 1008.61 1008.28 1007.80 1007.21 1006.56 1005.92 1005.33 1004.84 1004.44 1004.15 1003.95 1003.81 1003.73 1003.70 1003.73 1003.85 1004.08 1004.42 1004.88 1005.43 1006.04 1006.66 1007.26 1007.79 1008.25 1008.66 1009.02 1009.39 1009.81 1010.30 1010.88 1011.54 1012.24 1012.95 1013.60 1014.15 1014.57 1014.84 1014.98 1015.01 1014.97
1008.80 1008.87 1008.81 1008.60 1008.21 1007.67 1007.03 1006.35 1005.69 1005.08 1004.56 1004.13 1003.78 1003.51 1003.32 1003.20 1003.17 1003.26 1003.47 1003.82 1004.29 1004.86 1005.49 1006.14 1006.75 1007.30 1007.78 1008.18 1008.54 1008.91 1009.32 1009.81 1010.38 1011.04 1011.74 1012.46 1013.12 1013.70 1014.13 1014.43 1014.59 1014.63 1014.61
1008.81 1008.96 1009.01 1008.88 1008.56 1008.06 1007.43 1006.72 1005.99 1005.29 1004.65 1004.08 1003.60 1003.21 1002.90 1002.69 1002.60 1002.64 1002.83 1003.17 1003.64 1004.23 1004.88 1005.55 1006.18 1006.76 1007.25 1007.66 1008.03 1008.40 1008.80 1009.27 1009.83 1010.47 1011.17 1011.88 1012.56 1013.15 1013.62 1013.95 1014.15 1014.24 1014.25
1008.87 1009.08 1009.18 1009.10 1008.82 1008.35 1007.72 1006.99 1006.21 1005.43 1004.69 1004.01 1003.41 1002.90 1002.48 1002.18 1002.01 1001.99 1002.14 1002.46 1002.93 1003.52 1004.19 1004.88 1005.54 1006.14 1006.66 1007.10 1007.48 1007.85 1008.25 1008.71 1009.25 1009.87 1010.56 1011.26 1011.94 1012.55 1013.06 1013.45 1013.71 1013.86 1013.91
1008.96 1009.18 1009.29 1009.22 1008.96 1008.50 1007.88 1007.13 1006.32 1005.49 1004.68 1003.91 1003.21 1002.60 1002.08 1001.68 1001.43 1001.34 1001.44 1001.72 1002.17 1002.75 1003.43 1004.14 1004.84 1005.48 1006.03 1006.51 1006.92 1007.31 1007.71 1008.16 1008.68 1009.28 1009.94 1010.63 1011.31 1011.95 1012.50 1012.95 1013.28 1013.50 1013.63
1009.01 1009.21 1009.30 1009.22 1008.95 1008.50 1007.88 1007.14 1006.31 1005.46 1004.62 1003.79 1003.02 1002.33 1001.72 1001.23 1000.89 1000.73 1000.76 1000.99 1001.41 1001.98 1002.66 1003.40 1004.13 1004.81 1005.41 1005.93 1006.39 1006.80 1007.21 1007.66 1008.16 1008.73 1009.37 1010.04 1010.73 1011.38 1011.98 1012.48 1012.88 1013.18 1013.37
1008.97 1009.13 1009.19 1009.08 1008.81 1008.35 1007.75 1007.03 1006.22 1005.38 1004.53 1003.68 1002.87 1002.11 1001.43 1000.86 1000.44 1000.20 1000.16 1000.34 1000.71 1001.26 1001.94 1002.69 1003.46 1004.18 1004.84 1005.42 1005.91 1006.36 1006.78 1007.23 1007.71 1008.26 1008.87 1009.53 1010.20 1010.86 1011.49 1012.03 1012.49 1012.85 1013.11
1008.82 1008.95 1008.96 1008.83 1008.54 1008.10 1007.52 1006.84 1006.08 1005.27 1004.44 1003.60 1002.77 1001.97 1001.24 1000.61 1000.12 999.80 999.70 999.81 1000.14 1000.66 1001.33 1002.09 1002.88 1003.64 1004.34 1004.96 1005.50 1005.98 1006.42 1006.86 1007.33 1007.85 1008.43 1009.06 1009.71 1010.37 1011.01 1011.58 1012.08 1012.48 1012.79
1008.56 1008.66 1008.64 1008.49 1008.20 1007.77 1007.23 1006.61 1005.91 1005.16 1004.37 1003.56 1002.74 1001.94 1001.17 1000.50 999.95 999.58 999.41 999.47 999.75 1000.23 1000.87 1001.62 1002.41 1003.19 1003.92 1004.56 1005.13 1005.62 1006.07 1006.50 1006.96 1007.45 1008.00 1008.59 1009.22 1009.86 1010.49 1011.07 1011.59 1012.03 1012.37
1008.22 1008.29 1008.26 1008.09 1007.81 1007.42 1006.93 1006.37 1005.75 1005.07 1004.34 1003.58 1002.80 1002.00 1001.24 1000.54 999.97 999.55 999.34 999.34 999.57 1000.00 1000.59 1001.30 1002.06 1002.82 1003.54 1004.18 1004.74 1005.22 1005.66 1006.08 1006.51 1006.98 1007.49 1008.05 1008.65 1009.27 1009.89 1010.47 1010.99 1011.44 1011.81
1007.82 1007.89 1007.84 1007.68 1007.42 1007.07 1006.64 1006.15 1005.60 1005.00 1004.36 1003.66 1002.92 1002.17 1001.42 1000.74 1000.16 999.72 999.48 999.44 999.61 999.98 1000.50 1001.14 1001.83 1002.52 1003.18 1003.77 1004.28 1004.74 1005.14 1005.54 1005.94 1006.38 1006.86 1007.39 1007.97 1008.57 1009.17 1009.74 1010.27 1010.73 1011.11
1007.40 1007.46 1007.41 1007.26 1007.03 1006.72 1006.36 1005.94 1005.47 1004.96 1004.39 1003.76 1003.10 1002.40 1001.71 1001.06 1000.50 1000.08 999.82 999.74 999.86 1000.15 1000.58 1001.11 1001.69 1002.27 1002.82 1003.31 1003.74 1004.13 1004.48 1004.83 1005.20 1005.62 1006.08 1006.60 1007.17 1007.75 1008.35 1008.92 1009.44 1009.91 1010.31
1006.99 1007.03 1006.98 1006.84 1006.64 1006.38 1006.07 1005.72 1005.33 1004.90 1004.41 1003.87 1003.28 1002.66 1002.05 1001.47 1000.96 1000.57 1000.32 1000.22 1000.29 1000.50 1000.82 1001.21 1001.64 1002.07 1002.47 1002.82 1003.14 1003.43 1003.71 1004.01 1004.35 1004.74 1005.20 1005.72 1006.28 1006.87 1007.47 1008.04 1008.58 1009.06 1009.47
1006.57 1006.59 1006.53 1006.40 1006.22 1006.01 1005.75 1005.47 1005.15 1004.79 1004.38 1003.92 1003.43 1002.91 1002.39 1001.90 1001.47 1001.14 1000.92 1000.83 1000.85 1000.98 1001.18 1001.43 1001.69 1001.94 1002.16 1002.36 1002.54 1002.71 1002.90 1003.15 1003.46 1003.84 1004.30 1004.83 1005.41 1006.01 1006.62 1007.20 1007.75 1008.23 1008.67
1006.14 1006.12 1006.04 1005.92 1005.77 1005.59 1005.38 1005.15 1004.90 1004.60 1004.27 1003.90 1003.50 1003.09 1002.68 1002.30 1001.97 1001.72 1001.55 1001.48 1001.47 1001.53 1001.62 1001.73 1001.82 1001.90 1001.94 1001.98 1002.01 1002.07 1002.18 1002.37 1002.65 1003.02 1003.49 1004.04 1004.63 1005.26 1005.88 1006.47 1007.02 1007.51 1007.94
1005.68 1005.61 1005.52 1005.40 1005.26 1005.11 1004.95 1004.77 1004.56 1004.33 1004.07 1003.78 1003.47 1003.16 1002.86 1002.60 1002.38 1002.23 1002.13 1002.08 1002.07 1002.08 1002.09 1002.07 1002.02 1001.94 1001.83 1001.71 1001.62 1001.58 1001.62 1001.76 1002.02 1002.39 1002.86 1003.42 1004.03 1004.66 1005.29 1005.88 1006.42 1006.90 1007.34
1005.18 1005.07 1004.95 1004.83 1004.72 1004.59 1004.46 1004.32 1004.16 1003.98 1003.78 1003.55 1003.33 1003.11 1002.92 1002.76 1002.65 1002.59 1002.56 1002.56 1002.56 1002.54 1002.49 1002.39 1002.23 1002.03 1001.80 1001.58 1001.39 1001.27 1001.26 1001.37 1001.61 1001.98 1002.45 1003.02 1003.63 1004.26 1004.87 1005.44 1005.97 1006.43 1006.84
1004.64 1004.50 1004.38 1004.26 1004.16 1004.07 1003.97 1003.86 1003.73 1003.58 1003.42 1003.25 1003.09 1002.94 1002.83 1002.76 1002.73 1002.75 1002.78 1002.82 1002.85 1002.82 1002.74 1002.59 1002.37 1002.10 1001.80 1001.52 1001.28 1001.12 1001.09 1001.18 1001.41 1001.78 1002.25 1002.80 1003.39 1004.00 1004.59 1005.13 1005.62 1006.06 1006.44
1004.09 1003.95 1003.83 1003.73 1003.66 1003.59 1003.51 1003.43 1003.32 1003.20 1003.06 1002.92 1002.79 1002.69 1002.62 1002.60 1002.63 1002.69 1002.77 1002.84 1002.88 1002.86 1002.77 1002.61 1002.37 1002.07 1001.76 1001.46 1001.22 1001.07 1001.03 1001.13 1001.37 1001.73 1002.18 1002.71 1003.28 1003.85 1004.40 1004.91 1005.36 1005.77 1006.14
1003.59 1003.46 1003.37 1003.30 1003.25 1003.21 1003.16 1003.09 1003.00 1002.89 1002.76 1002.62 1002.50 1002.41 1002.35 1002.35 1002.38 1002.46 1002.54 1002.62 1002.66 1002.65 1002.57 1002.40 1002.18 1001.91 1001.62 1001.36 1001.15 1001.03 1001.02 1001.15 1001.40 1001.76 1002.20 1002.70 1003.24 1003.77 1004.27 1004.74 1005.17 1005.56 1005.92
1003.18 1003.10 1003.05 1003.02 1003.00 1002.98 1002.95 1002.90 1002.82 1002.70 1002.57 1002.43 1002.29 1002.18 1002.10 1002.07 1002.08 1002.12 1002.18 1002.23 1002.26 1002.24 1002.16 1002.02 1001.82 1001.59 1001.37 1001.16 1001.02 1000.97 1001.02 1001.18 1001.46 1001.82 1002.26 1002.74 1003.24 1003.73 1004.21 1004.65 1005.06 1005.46 1005.83
Thickness
5769 5768 5768 5767 5765 5762 5760 5758 5755 5754 5752 5749 5747 5743 5740 5740 5739 5739 5739 5738 5736 5734 5733 5731 5730 5729 5727 5726 5724 5723 5721 5719 5719 5717 5716 5717 5719 5719 5719 5720 5719 5719 5719
5762 5763 5763 5762 5761 5758 5757 5755 5753 5751 5750 5748 5746 5743 5740 5738 5737 5736 5736 5735 5734 5732 5731 5729 5728 5726 5725 5723 5722 5721 5718 5717 5716 5713 5709 5707 5710 5714 5716 5716 5716 5716 5716
5759 5758 5757 5756 5756 5754 5754 5753 5750 5749 5748 5745 5742 5740 5737 5735 5733 5733 5733 5733 5731 5729 5729 5727 5726 5724 5722 5720 5719 5718 5716 5713 5712 5711 5708 5704 5701 5705 5709 5710 5711 5712 5712
5757 5755 5753 5752 5752 5752 5752 5750 5748 5746 5745 5743 5740 5736 5732 5730 5730 5730 5730 5729 5728 5727 5726 5724 5723 5721 5720 5718 5717 5716 5714 5712 5709 5708 5707 5706 5704 5700 5699 5703 5706 5707 5707
5755 5753 5751 5750 5750 5749 5748 5747 5745 5743 5742 5740 5736 5733 5729 5728 5727 5727 5726 5725 5725 5724 5722 5721 5720 5718 5717 5716 5715 5713 5712 5710 5708 5705 5704 5702 5700 5699 5696 5695 5698 5701 5703
5753 5751 5749 5747 5745 5745 5744 5742 5740 5739 5737 5735 5732 5729 5727 5725 5723 5723 5722 5721 5720 5720 5719 5718 5717 5716 5715 5713 5712 5711 5709 5707 5705 5704 5702 5700 5697 5695 5694 5692 5692 5693 5697
5747 5746 5744 5742 5741 5740 5739 5738 5736 5733 5732 5730 5728 5726 5724 5722 5720 5719 5718 5717 5715 5715 5715 5715 5714 5713 5712 5711 5709 5707 5705 5704 5702 5701 5700 5698 5697 5696 5693 5691 5689 5689 5691
5743 5742 5741 5739 5738 5737 5735 5733 5731 5729 5728 5726 5725 5723 5721 5719 5718 5716 5715 5713 5712 5711 5711 5710 5709 5709 5708 5707 5705 5704 5702 5701 5699 5698 5697 5695 5694 5693 5691 5689 5687 5684 5685
5738 5738 5737 5735 5733 5732 5731 5730 5727 5725 5724 5723 5721 5719 5717 5716 5714 5713 5711 5710 5709 5708 5707 5706 5704 5704 5704 5703 5701 5700 5698 5697 5696 5695 5693 5692 5691 5689 5689 5687 5686 5682 5679
5732 5731 5731 5730 5729 5728 5727 5726 5724 5722 5720 5719 5717 5715 5713 5712 5710 5709 5707 5706 5705 5704 5704 5702 5700 5699 5699 5698 5697 5696 5694 5693 5691 5690 5689 5688 5687 5686 5685 5683 5682 5681 5678
5725 5725 5724 5724 5722 5721 5720 5719 5718 5717 5715 5714 5712 5710 5709 5708 5706 5704 5703 5702 5700 5699 5698 5697 5696 5694 5694 5693 5692 5691 5690 5688 5686 5686 5685 5684 5683 5681 5680 5679 5678 5676 5675
5720 5719 5718 5717 5714 5713 5712 5712 5712 5712 5711 5710 5708 5706 5704 5703 5701 5700 5699 5698 5696 5695 5693 5692 5691 5690 5690 5688 5687 5686 5685 5683 5681 5681 5680 5679 5678 5676 5675 5674 5673 5672 5671
5711 5710 5710 5709 5708 5708 5706 5705 5706 5706 5706 5705 5703 5701 5699 5698 5696 5695 5694 5693 5691 5690 5688 5687 5686 5685 5684 5684 5682 5681 5680 5678 5677 5675 5674 5673 5672 5671 5670 5669 5668 5667 5667
5703 5702 5702 5702 5702 5702 5701 5699 5699 5700 5700 5698 5697 5695 5694 5693 5691 5690 5689 5688 5686 5684 5683 5682 5681 5679 5679 5678 5677 5676 5675 5674 5673 5671 5669 5668 5668 5666 5665 5664 5663 5663 5661
5697 5696 5695 5695 5695 5695 5695 5694 5694 5694 5694 5692 5690 5689 5688 5687 5686 5685 5684 5682 5681 5679 5677 5676 5675 5674 5673 5673 5671 5670 5669 5668 5667 5666 5665 5664 5663 5662 5661 5660 5658 5657 5656
5691 5691 5690 5689 5688 5688 5688 5688 5689 5689 5688 5686 5685 5684 5682 5681 5680 5679 5677 5676 5674 5672 5670 5669 5668 5667 5667 5666 5665 5664 5662 5661 5660 5659 5659 5659 5658 5657 5656 5655 5654 5653 5651
5685 5683 5683 5683 5682 5682 5682 5682 5682 5682 5681 5680 5680 5678 5677 5675 5674 5673 5671 5668 5666 5664 5662 5662 5660 5659 5659 5659 5659 5658 5656 5655 5654 5653 5653 5654 5653 5652 5651 5650 5648 5647 5647
5678 5677 5676 5676 5676 5676 5676 5676 5676 5676 5675 5674 5674 5672 5671 5669 5667 5666 5663 5660 5658 5656 5655 5655 5653 5653 5653 5653 5652 5651 5650 5649 5648 5648 5647 5647 5647 5647 5646 5645 5643 5642 5641
5671 5671 5670 5670 5670 5670 5670 5669 5668 5668 5668 5668 5667 5667 5665 5663 5660 5658 5655 5653 5651 5650 5649 5648 5647 5646 5645 5645 5645 5644 5643 5643 5642 5642 5642 5642 5641 5641 5640 5639 5637 5636 5636
5664 5664 5663 5663 5663 5663 5663 5662 5661 5660 5660 5661 5661 5661 5659 5657 5654 5651 5648 5646 5644 5643 5642 5640 5639 5637 5637 5637 5637 5637 5636 5636 5636 5636 5636 5636 5635 5635 5633 5633 5632 5630 5630
5656 5656 5655 5654 5655 5656 5655 5654 5654 5653 5654 5654 5653 5652 5651 5650 5648 5644 5641 5639 5637 5635 5634 5632 5631 5630 5630 5631 5631 5630 5630 5630 5630 5630 5630 5630 5629 5628 5627 5626 5625 5624 5624
5647 5648 5647 5647 5647 5647 5646 5645 5645 5647 5646 5646 5645 5644 5644 5643 5641 5637 5634 5632 5630 5628 5626 5625 5625 5625 5625 5625 5625 5624 5624 5624 5624 5624 5624 5623 5622 5621 5621 5620 5619 5618 5617
5638 5639 5639 5638 5638 5638 5637 5636 5637 5638 5638 5637 5637 5636 5635 5634 5632 5630 5627 5625 5623 5621 5620 5619 5619 5619 5619 5619 5618 5618 5618 5618 5618 5618 5617 5616 5615 5614 5614 5613 5613 5612 5611
5630 5630 5630 5629 5629 5629 5629 5629 5629 5630 5630 5629 5628 5627 5626 5625 5623 5622 5620 5618 5617 5616 5615 5614 5613 5614 5613 5613 5613 5612 5612 5611 5610 5610 5609 5607 5606 5606 5607 5606 5606 5605 5605
5622 5622 5621 5620 5620 5621 5621 5621 5621 5622 5621 5619 5619 5618 5617 5615 5614 5614 5612 5611 5611 5610 5610 5609 5609 5608 5609 5609 5607 5606 5605 5605 5604 5603 5602 5601 5600 5600 5600 5600 5599 5599 5598
5614 5614 5613 5613 5613 5613 5613 5614 5614 5613 5612 5610 5610 5609 5608 5607 5606 5605 5604 5604 5604 5603 5603 5602 5602 5602 5602 5601 5601 5600 5599 5598 5597 5596 5596 5595 5595 5595 5594 5594 5593 5592 5591